User: anonymous   Login
Location: Caltech
(34.1382°N, 118.1253°W)
Time: 13:55:15
(UTC-07:00)
Language:

Oscar 11 - Orbit

View from above orbital plane
View from above orbital plane
View from above satellite
View from above satellite

Ground track
Ground track

The orbit data is extracted from the following two-line orbital elements,

1 14781U 84021B   16268.03079982  .00000154  00000-0  25350-4 0  9996
2 14781  97.7385 316.9519 0008408   1.8038 358.3205 14.82795815750903
Epoch (UTC): 24 September 2016 00:44:21
Eccentricity: 0.0008408
inclination: 97.7385°
perigee height: 614 km
apogee height: 626 km
right ascension of ascending node: 316.9519°
argument of perigee: 1.8038°
revolutions per day: 14.82795815
mean anomaly at epoch: 358.3205°
orbit number at epoch: 75090

The dashed part of the orbit path shows where the satellite is in the earth's shadow,  

DLR